Вернуться в каталог

STARLINK-3973

АктивенСвязьVLEO
NORAD 52645·PAYLOAD·🇺🇸 United States

Запущен May 14, 2022 с Cape Canaveral Space Force Station

Loading…

Ближайшие Пролёты (ближайшие 24 часа)

TLE

СвежийSource: CelesTrak SupGP

Эпоха: Sep 15, 2026, 01:20 UTC

1 52645C 22052AZ  26258.05604167  .00042425  00000+0  13643-2 0  2588
2 52645  53.1580 116.1516 0001339  81.7251 240.9320 15.31680703    12

Отслеживайте STARLINK-3973 в реальном времени с AllMySat

Download on the App Store